Location: Frankfurt+(oder)
(51.7984°N, 12.2168°E)
Time: 15:50:08
(UTC+01:00)

Tiangong 1 - Visible Passes

Search period start: 23 November 2017 00:00
Search period end: 03 December 2017 00:00
Orbit: 284 x 308 km, 42.8° (Epoch: 23 November)

Date Brightness Start Highest point End Pass type
(mag) Time Alt. Az. Time Alt. Az. Time Alt. Az.
29 Nov 3.5 18:12:33 10° SSW 18:13:17 11° S 18:13:17 11° S visible
30 Nov 3.5 18:17:50 10° SSW 18:18:41 12° S 18:18:41 12° S visible
01 Dec 3.6 16:49:50 10° S 16:50:15 10° S 16:50:40 10° SSE visible
01 Dec 3.6 18:23:19 10° SSW 18:23:58 11° SSW 18:23:58 11° SSW visible
02 Dec 3.5 16:54:22 10° SSW 16:55:23 12° S 16:56:24 10° SSE visible
